This is the latest recevied weather packets stored in our database for station/object KA8OAD-10. If no packets are shown the sender has not sent any weather packets the latest 10 day(s).
| Time | Temp. | Humidity | Pressure | Rain* | Wind** | Luminosity | Snow |
|---|---|---|---|---|---|---|---|
| 1777388552 | 15.56° C | 84% | 1010.7 hPa | 0 mm | - | 246 W/m² | - |
| 1777388251 | 15.56° C | 84% | 1010.6 hPa | 0 mm | - | 248 W/m² | - |
| 1777387951 | 15.56° C | 84% | 1010.8 hPa | 0 mm | - | 218 W/m² | - |
| 1777387349 | 15° C | 85% | 1010.6 hPa | 0 mm | - | 330 W/m² | - |
| 1777387053 | 15° C | 85% | 1010.5 hPa | 0 mm | - | 178 W/m² | - |
| 1777386752 | 15° C | 85% | 1010.5 hPa | 0 mm | - | 165 W/m² | - |
| 1777386451 | 14.44° C | 85% | 1010.5 hPa | 0 mm | - | 155 W/m² | - |
| 1777386150 | 14.44° C | 86% | 1010.5 hPa | 0 mm | - | 128 W/m² | - |
| 1777385550 | 14.44° C | 86% | 1010.6 hPa | 0 mm | - | 179 W/m² | - |
| 1777384653 | 14.44° C | 86% | 1010.6 hPa | 0 mm | - | 98 W/m² | - |
| 1777382849 | 13.89° C | 86% | 1010.5 hPa | 0 mm | - | 116 W/m² | - |
| 1777382252 | 13.89° C | 86% | 1010.4 hPa | 0 mm | - | 100 W/m² | - |
| 1777381350 | 13.89° C | 87% | 1010.3 hPa | 0 mm | - | 91 W/m² | - |
| 1777381050 | 13.89° C | 87% | 1010.4 hPa | 0 mm | - | 51 W/m² | - |
| 1777380750 | 13.33° C | 87% | 1010.4 hPa | 0 mm | - | 56 W/m² | - |
| 1777380453 | 13.33° C | 87% | 1010.3 hPa | 0 mm | - | 98 W/m² | - |
| 1777380152 | 13.33° C | 87% | 1010.4 hPa | 0 mm | - | 44 W/m² | - |
| 1777379852 | 13.33° C | 88% | 1010.3 hPa | 0 mm | - | 56 W/m² | - |
| 1777379551 | 13.33° C | 88% | 1010.1 hPa | 0 mm | - | 54 W/m² | - |
| 1777378352 | 13.33° C | 89% | 1010.2 hPa | 0 mm | - | 40 W/m² | - |
| 1777378052 | 13.33° C | 89% | 1010.3 hPa | 0 mm | - | 25 W/m² | - |
| 1777377751 | 13.33° C | 89% | 1010.3 hPa | 0 mm | - | 28 W/m² | - |
| 1777376549 | 13.33° C | 90% | 1010.1 hPa | 0 mm | - | 25 W/m² | - |
| 1777376253 | 13.33° C | 90% | 1010.2 hPa | 0 mm | - | 26 W/m² | - |
| 1777375952 | 13.33° C | 90% | 1010.2 hPa | 0 mm | - | 18 W/m² | - |
* Rain latest hour (hover to see other rain measurements)
** Current wind speed in m/s (hover to see current wind gust speed)